Theta_e
338 338 338 339 338 338 338 338 338 338 338 339 339 340 341 342 342 342 343 344 345 346 346 346 347 347 346 345 344 343 341 338 336 334 330 325 324 327 330 332 333 332 333 334 335 334 333 332 331 330 329 329 330 330 330 331 332 333 334 335 335 335 336 337 337 337 338 338 338 339 339 338 339 339 340 340 340 340 340 340 340 339 339 339 337
338 339 340 339 339 339 340 340 340 340 341 341 341 341 342 342 342 342 343 344 345 345 346 345 346 346 346 345 344 344 343 341 337 335 334 333 329 328 327 328 329 331 333 334 335 336 336 336 334 333 332 331 331 331 332 332 334 335 337 336 337 337 337 337 338 338 338 338 338 338 338 337 337 336 336 337 337 336 336 337 336 335 333 333 330
339 339 341 341 340 339 339 340 341 341 341 341 342 343 343 343 342 342 344 345 345 346 346 346 346 346 346 345 345 345 344 343 340 338 337 336 335 333 331 329 328 329 331 333 334 335 335 335 335 335 334 335 335 334 335 335 336 336 336 335 336 337 338 338 338 338 338 338 338 338 338 336 334 333 333 332 331 329 329 328 328 326 325 324 323
340 340 342 342 341 340 340 340 341 341 340 341 341 342 342 342 343 343 344 346 346 346 347 347 347 347 347 346 346 346 346 344 343 342 340 339 337 336 335 334 333 332 332 333 333 334 334 334 334 334 333 334 334 334 334 334 334 334 334 335 337 338 339 339 338 338 338 338 337 337 336 335 333 331 330 329 326 323 322 321 320 320 320 319 319
341 342 342 342 342 342 341 340 341 341 341 340 340 340 340 342 344 344 346 346 346 346 347 348 348 348 347 347 347 347 346 345 346 345 343 341 340 339 337 336 336 335 335 335 335 335 335 335 334 333 333 332 333 333 333 334 335 335 336 337 339 339 339 339 338 338 338 336 336 336 335 334 333 330 328 325 322 320 319 318 317 317 317 317 317
342 343 342 342 342 342 342 341 340 341 341 341 340 340 341 342 344 345 346 347 346 346 347 347 348 348 347 346 347 346 346 346 347 347 345 342 342 342 339 338 337 337 336 336 336 336 337 336 336 335 335 335 336 336 336 337 337 338 338 339 338 338 338 338 337 337 336 335 335 335 334 333 332 329 326 322 320 319 317 316 316 317 317 317 317
343 344 343 343 344 343 343 342 341 341 341 341 341 341 342 343 344 344 345 346 346 347 347 348 348 347 347 346 346 346 347 347 347 348 346 344 345 344 342 341 339 339 338 336 336 335 335 336 336 337 337 337 337 337 337 337 337 337 338 338 337 337 337 336 335 334 333 332 331 331 331 331 330 327 324 321 319 317 317 316 316 316 316 316 316
344 344 344 344 344 343 344 344 343 342 342 341 341 341 343 343 345 345 345 346 346 347 347 347 347 346 347 346 347 347 347 347 347 347 347 346 347 345 343 342 341 341 341 339 338 336 336 336 335 336 337 337 337 336 336 336 336 336 336 337 336 335 335 334 332 330 327 326 325 325 325 327 327 325 322 319 317 317 316 316 316 316 316 316 317
344 344 344 344 344 343 342 343 343 341 340 342 341 342 343 344 344 344 345 347 346 347 347 346 347 347 347 347 347 347 347 348 347 347 347 347 347 346 345 343 342 342 342 341 341 340 340 339 338 337 337 336 336 336 336 335 335 336 335 334 334 334 333 332 330 326 322 320 318 319 320 322 323 322 319 317 317 317 317 317 317 317 317 317 318
345 344 343 344 345 344 342 343 342 340 339 342 342 343 344 345 345 345 345 346 346 347 346 347 347 346 346 347 348 348 348 348 347 347 348 347 347 347 347 346 344 344 343 343 343 344 343 342 342 341 340 339 338 337 336 336 335 334 334 333 333 332 332 330 327 322 319 317 316 316 317 319 319 318 317 317 318 318 318 318 318 318 319 319 320
345 344 344 344 344 344 343 344 343 343 340 341 344 344 345 345 344 344 344 345 346 346 347 346 346 346 345 345 346 347 347 348 347 348 349 348 347 348 348 348 347 346 346 346 346 346 343 340 339 340 340 337 336 337 337 336 335 334 334 333 332 330 330 329 324 319 318 317 316 316 316 317 317 317 317 318 318 319 319 319 319 319 319 319 319
347 345 344 343 343 343 344 344 345 345 343 342 344 344 344 344 344 343 343 343 345 345 345 346 345 346 345 343 343 345 346 347 347 348 349 348 348 348 349 349 348 347 344 343 344 343 340 336 334 334 333 330 332 336 337 336 335 336 334 332 328 326 327 325 322 319 318 317 316 316 316 317 317 317 318 319 319 319 319 320 320 319 319 319 320
347 345 343 343 343 342 344 345 345 346 345 344 344 342 342 343 343 343 343 344 344 344 344 345 345 345 345 343 342 343 344 345 348 348 348 348 348 348 348 348 346 344 341 340 341 339 337 334 330 329 327 325 327 329 332 334 334 334 332 327 324 322 323 321 319 319 318 317 317 317 317 317 318 318 319 319 319 319 319 320 319 319 319 319 320
346 345 344 344 342 342 344 346 346 346 346 345 344 342 341 342 342 342 342 343 343 343 343 343 344 344 344 343 342 342 343 345 347 347 347 348 347 345 345 345 344 343 342 340 337 335 335 334 333 332 329 323 322 323 325 327 327 327 325 323 322 320 320 319 319 318 318 318 318 318 318 318 318 319 319 319 319 320 319 320 320 320 319 319 320
345 344 344 344 344 344 344 346 346 346 346 345 344 342 341 342 341 341 341 342 342 341 342 342 343 343 343 342 342 343 343 343 345 347 347 348 347 344 343 344 343 341 341 340 337 336 336 336 339 340 336 329 324 322 322 322 322 321 322 322 321 320 319 319 319 319 319 319 319 319 319 319 319 319 319 319 319 320 319 320 320 320 320 320 320
343 344 344 344 344 345 345 344 345 345 344 344 343 340 340 341 341 341 342 341 340 340 341 342 342 342 341 342 343 343 343 343 344 346 346 347 347 344 343 343 343 340 341 341 340 339 337 337 341 342 341 338 334 328 324 322 322 321 322 321 321 321 321 321 321 321 321 321 321 321 321 321 321 321 321 321 321 320 320 320 320 320 320 320 320
343 344 345 344 344 345 345 344 344 345 344 343 342 338 338 340 341 341 342 341 340 339 341 342 341 339 340 343 343 344 344 344 344 345 344 345 346 345 343 342 342 341 340 341 342 343 340 338 340 342 342 342 341 335 327 324 323 323 323 323 323 323 323 323 323 323 322 322 323 323 323 323 322 323 323 322 322 322 322 322 322 321 321 321 320
344 344 344 345 344 345 344 344 344 345 345 344 344 339 337 340 341 342 342 342 342 341 340 340 341 340 342 343 344 344 345 345 344 344 344 345 345 345 343 341 342 342 341 342 343 344 342 341 341 342 343 343 343 339 332 328 326 325 325 324 324 324 324 324 324 324 324 324 325 324 324 324 324 324 324 324 323 323 324 323 323 323 322 323 322
343 343 344 343 345 345 344 345 344 344 344 345 345 341 337 340 343 343 342 342 341 341 339 339 341 342 344 345 345 345 345 345 344 344 344 343 344 344 343 341 342 343 343 343 344 344 343 342 342 343 343 343 343 340 334 330 329 328 327 326 326 326 326 326 326 326 327 327 327 326 327 327 326 327 327 327 326 326 326 326 325 325 325 324 323
341 341 342 342 344 346 345 344 344 344 345 345 345 343 338 339 342 342 342 340 339 341 340 339 341 343 344 345 345 345 344 345 344 345 344 343 343 342 342 342 341 343 344 343 344 343 342 340 342 343 342 343 343 337 331 329 329 329 328 327 327 327 326 327 327 327 327 327 327 327 327 327 327 328 328 328 328 329 329 329 329 329 329 328 328
341 341 341 341 342 345 345 344 345 345 345 345 345 344 340 338 340 341 341 341 340 339 339 339 341 342 344 344 343 343 344 344 344 345 344 342 342 343 342 342 342 342 343 343 343 342 342 341 342 343 343 342 340 335 331 332 333 333 331 330 328 327 327 327 327 327 327 328 327 327 327 327 328 328 328 328 328 329 329 330 330 330 331 331 331
339 341 341 340 341 344 343 344 345 344 344 345 344 344 342 338 339 341 343 343 342 340 338 339 341 343 344 343 343 342 343 344 344 345 343 342 343 345 344 343 342 342 343 343 343 342 341 340 341 342 341 340 337 335 335 337 340 341 337 334 331 329 329 329 330 330 331 332 332 332 332 332 333 332 332 332 331 332 332 332 333 333 333 333 333
339 340 341 341 341 343 342 342 344 344 343 344 344 344 343 339 338 342 344 343 341 340 339 339 341 343 342 342 342 341 341 344 345 345 344 343 344 345 346 344 344 344 342 342 342 341 339 339 341 341 339 338 336 336 336 338 343 343 339 337 336 334 335 335 336 336 337 337 337 338 337 337 338 337 337 337 337 337 337 337 337 338 339 339 339
340 340 340 341 341 342 342 341 342 342 341 344 345 345 344 343 339 341 343 343 341 341 341 340 342 343 341 340 341 341 342 344 345 345 345 345 346 346 345 344 344 344 342 341 340 339 340 339 341 341 340 339 337 338 337 338 344 344 340 341 341 342 342 342 342 342 343 343 342 342 342 342 341 341 340 339 339 339 340 343 345 347 348 348 349
343 341 341 341 342 342 341 340 341 341 341 344 348 346 345 345 342 337 337 341 342 341 342 341 342 341 340 340 342 344 344 344 343 344 344 345 345 345 344 342 343 344 343 341 340 339 340 340 341 340 340 341 340 340 339 340 345 345 343 344 346 346 346 346 346 346 346 346 346 346 347 346 345 344 343 342 344 346 348 351 352 354 354 354 353
342 342 341 341 342 342 342 340 340 340 340 344 347 347 345 346 345 338 332 333 337 340 342 342 340 339 339 342 345 345 344 343 342 342 343 343 343 344 343 340 341 344 344 342 341 342 342 342 342 341 341 342 341 341 341 342 346 347 346 347 347 348 348 349 348 347 347 348 349 350 351 350 350 349 349 350 351 353 354 355 356 355 355 354 353
338 338 340 342 342 343 343 341 340 339 339 342 343 346 347 346 345 342 336 331 331 337 342 342 339 340 343 345 345 345 344 343 343 342 342 342 342 343 341 339 339 343 345 344 341 343 344 344 344 342 342 342 341 341 341 343 347 346 347 348 348 349 349 348 347 346 347 349 350 352 352 352 352 352 353 355 356 356 356 356 355 354 354 353 352
334 333 336 340 344 344 343 342 341 340 339 338 339 342 346 347 344 343 342 335 331 334 338 338 339 342 345 346 345 345 345 344 344 343 342 341 343 343 341 337 336 338 341 342 338 339 343 345 345 344 343 342 341 341 342 343 346 345 345 347 347 347 346 345 345 345 347 348 351 353 354 354 355 356 357 357 357 356 356 355 354 353 352 351 351
330 329 330 335 340 342 344 343 341 341 340 339 338 337 341 346 345 342 342 340 335 333 333 333 336 340 342 345 345 346 345 345 345 344 344 343 343 343 342 338 332 331 334 335 333 334 341 345 345 345 344 343 342 341 340 340 340 340 339 338 340 341 342 342 344 346 348 351 353 355 356 357 358 358 358 357 356 355 354 353 353 352 351 350 348
327 328 328 330 334 336 340 343 342 341 340 339 338 337 338 342 344 342 341 341 339 337 336 332 331 334 338 343 346 347 348 347 346 345 345 345 344 344 342 335 330 332 333 333 332 332 335 340 341 341 341 339 336 334 333 332 333 335 334 334 337 340 341 343 347 349 351 353 354 356 357 358 358 357 356 355 354 352 351 349 348 346 345 344 344
326 328 329 329 330 330 334 340 342 342 341 340 340 340 338 339 341 342 342 342 340 339 340 337 333 333 337 342 345 347 349 348 345 346 345 345 347 345 339 332 331 334 334 333 333 331 331 332 333 334 334 331 330 329 329 330 332 333 334 335 338 341 343 347 350 352 353 354 355 356 358 358 357 356 352 348 346 344 342 341 341 341 341 342 343
327 327 328 329 330 329 330 336 342 343 341 340 339 340 340 338 339 340 341 342 341 338 338 341 341 337 335 340 345 346 348 347 346 346 345 344 343 339 333 332 334 337 337 336 335 333 333 333 332 330 330 328 328 328 328 330 332 334 336 338 340 342 346 350 352 353 354 355 356 357 358 358 356 350 343 338 336 335 336 337 338 339 339 340 341
326 326 327 328 329 330 329 333 338 341 342 341 340 340 339 338 338 338 339 340 341 339 337 338 342 341 336 336 340 344 346 345 343 343 342 339 337 334 333 335 337 340 343 342 340 338 335 336 332 328 328 328 327 327 327 328 331 334 336 339 342 345 350 354 354 352 353 356 356 357 357 356 350 340 334 332 331 331 333 334 334 334 335 336 337
326 325 325 327 328 330 330 331 334 337 340 342 341 339 338 337 338 338 338 338 339 340 339 336 338 340 339 336 335 338 341 340 337 336 336 334 334 334 335 337 338 342 346 347 347 344 338 335 332 329 329 329 327 328 328 329 330 332 336 340 345 350 354 356 354 351 353 356 356 356 356 350 340 332 329 328 327 328 329 328 327 328 330 331 332
326 326 326 326 328 330 330 331 332 334 337 340 342 341 338 337 337 337 338 338 338 338 339 339 337 338 339 338 336 337 339 339 335 334 335 335 335 335 335 337 338 341 346 349 350 348 344 339 333 330 330 329 327 328 329 330 331 331 334 340 346 351 354 354 351 350 353 354 355 355 351 342 333 329 327 326 325 325 325 325 325 325 326 328 330
325 326 325 325 328 330 330 331 332 333 335 338 341 342 340 338 337 336 337 338 338 337 338 338 339 338 339 338 338 338 339 339 337 337 336 336 336 336 336 337 338 339 344 349 352 351 350 345 338 333 331 329 327 327 328 330 330 331 334 340 345 348 349 350 349 348 350 352 354 351 343 335 330 327 325 325 325 324 324 324 324 325 327 329 329
326 326 325 325 327 331 331 331 331 333 334 336 339 341 341 340 338 336 336 337 338 337 336 336 337 337 338 337 337 337 337 337 336 336 335 335 335 336 335 336 337 339 341 346 350 350 350 347 340 334 331 328 327 326 328 331 329 330 333 339 345 347 346 347 348 348 349 353 353 345 336 332 330 325 324 324 324 323 323 323 324 326 328 328 328
325 325 325 326 326 330 332 331 331 332 333 335 337 339 340 340 340 339 337 336 336 336 336 336 336 336 335 336 335 335 335 335 335 334 334 334 334 334 335 335 336 338 339 341 344 345 346 343 339 334 328 327 328 327 329 331 329 330 333 338 343 345 345 346 348 349 353 354 349 339 333 331 328 326 324 324 323 323 323 324 325 327 327 327 328
325 325 325 325 326 329 331 331 332 332 333 334 335 337 339 339 340 339 339 338 336 336 336 336 337 337 335 336 335 335 335 335 335 335 334 334 334 334 334 335 335 337 338 338 338 340 340 338 336 333 328 327 327 327 328 330 329 332 336 338 341 343 344 346 349 353 354 351 344 336 331 329 328 325 324 324 323 322 323 324 326 326 326 327 328
325 325 325 326 327 329 332 332 332 333 333 334 334 336 337 338 339 338 339 339 338 337 337 337 336 336 336 336 336 336 337 336 335 334 333 333 333 333 333 333 335 336 336 336 336 337 337 336 335 332 329 328 327 327 328 328 330 333 337 340 341 342 345 348 352 355 353 348 342 334 329 328 327 325 324 324 323 322 323 325 324 325 326 326 327
327 327 327 327 329 331 332 333 333 334 335 334 334 335 336 337 337 337 337 338 338 338 338 337 337 337 337 336 336 336 336 336 335 334 334 332 332 332 332 332 334 335 335 335 336 336 336 335 333 331 329 329 328 328 328 329 330 332 336 339 341 344 347 349 353 355 352 346 341 334 329 329 326 325 324 323 321 322 323 323 323 323 324 325 326
330 330 330 331 332 333 333 334 335 336 336 335 334 333 334 335 337 336 337 337 337 338 339 338 337 337 336 336 336 336 335 335 334 333 333 332 331 330 331 333 336 337 338 338 337 336 336 334 333 332 331 329 328 328 329 329 331 333 335 338 341 346 351 351 352 355 351 345 340 333 329 328 326 324 323 321 321 322 322 322 322 323 323 323 324
335 334 335 335 336 335 335 334 335 336 336 335 334 333 333 334 335 335 335 336 337 337 338 338 337 336 335 335 334 333 333 333 333 332 331 331 330 330 330 334 339 341 342 341 339 337 338 337 336 334 332 329 327 329 330 330 333 335 336 339 344 350 354 354 355 356 350 343 339 333 328 327 324 324 323 320 320 322 321 321 322 322 323 322 323
339 338 338 338 338 337 337 337 337 336 336 335 335 335 333 333 334 334 334 335 335 336 336 336 336 336 335 335 334 333 332 332 331 331 331 331 330 330 330 334 342 345 345 344 342 340 341 340 340 337 334 331 330 330 333 335 337 339 340 344 349 354 355 355 357 356 349 342 338 332 328 326 324 323 322 320 321 321 320 321 322 322 321 321 322
343 342 341 340 340 340 340 339 338 336 336 335 336 336 335 334 334 334 335 334 335 335 335 334 334 335 335 334 334 334 333 332 333 332 332 332 332 331 331 336 342 346 346 345 344 343 343 344 343 338 334 334 333 331 335 339 340 342 344 348 352 355 356 356 357 355 348 341 337 332 327 325 324 323 321 320 321 321 321 321 322 321 320 320 322
347 345 344 342 343 343 343 341 338 336 336 336 337 337 336 336 335 334 335 335 335 335 335 335 334 334 334 334 334 334 333 333 333 333 333 332 333 334 335 339 342 344 345 345 344 344 345 345 345 340 337 339 338 333 337 343 345 346 348 350 353 355 355 355 357 354 346 340 337 331 327 325 323 322 321 320 321 321 321 321 321 321 320 320 322
348 347 345 345 346 346 345 342 339 337 337 337 336 338 338 337 337 338 337 337 336 336 335 336 336 334 334 334 334 334 334 334 333 333 333 333 335 336 338 341 344 345 345 345 345 345 346 345 346 345 343 343 342 338 339 344 346 349 351 352 354 355 355 355 356 351 344 340 337 331 327 326 323 322 321 320 321 321 321 321 321 320 320 320 321
350 349 348 348 348 347 346 344 341 340 338 337 338 338 339 339 340 341 342 342 341 340 339 337 336 335 335 335 335 335 334 334 333 333 333 335 338 339 340 342 346 348 348 348 347 348 347 347 348 348 347 347 346 343 340 341 346 350 353 353 354 356 355 355 354 348 342 341 338 331 328 326 323 322 321 320 321 322 321 320 321 320 319 320 320
352 352 351 351 350 349 347 345 344 342 340 338 338 338 339 340 342 343 344 345 346 344 341 338 337 336 336 336 336 336 335 334 333 333 334 338 341 342 343 342 346 348 347 346 347 347 346 347 348 350 350 349 347 344 341 341 346 352 354 354 354 355 354 352 349 344 342 341 338 332 328 326 323 321 321 321 322 322 321 321 320 320 320 319 319
353 353 353 353 352 351 349 347 346 345 342 341 339 338 338 341 344 346 346 347 347 346 344 341 339 338 337 336 337 337 336 334 334 334 336 340 343 343 343 343 344 343 340 338 341 342 341 343 345 347 348 347 345 343 342 342 348 353 354 353 354 355 352 348 345 343 342 342 340 334 328 325 323 321 321 321 321 322 321 321 321 320 319 319 319
354 354 354 354 353 353 351 350 349 348 347 344 342 339 339 342 346 349 349 349 348 347 345 344 342 340 338 337 337 338 336 335 335 335 336 342 345 344 343 345 345 340 333 333 336 337 339 341 342 344 344 345 345 345 343 344 350 354 353 353 354 355 352 348 345 344 343 342 340 334 327 324 322 320 320 321 321 322 322 321 321 320 319 319 318
Wind_Speed
11 11 11 12 12 12 12 13 14 14 15 15 15 15 15 15 15 15 15 13 11 10 9 7 6 4 3 4 6 6 5 6 7 7 7 6 5 6 6 6 5 4 4 4 4 3 3 4 4 4 4 4 3 3 2 2 2 1 1 0 1 1 1 2 2 3 4 4 4 4 4 5 5 5 5 5 6 6 6 6 6 6 6 6 6
9 9 10 11 12 13 12 12 13 13 13 14 14 15 15 15 16 15 14 13 12 11 9 7 6 4 3 3 5 6 5 6 6 7 7 7 6 5 5 5 5 4 4 4 4 3 3 3 3 3 3 3 3 3 3 3 2 2 1 1 1 1 1 2 3 3 4 4 4 5 5 5 6 5 5 5 6 6 6 6 6 6 6 6 6
8 8 8 9 11 13 13 12 12 12 12 13 14 14 15 15 15 14 14 13 13 12 10 8 7 6 4 3 5 6 6 5 6 6 6 6 5 5 5 5 5 4 4 3 3 3 3 3 3 3 3 3 3 3 3 3 2 1 1 1 2 2 3 3 3 4 4 5 5 5 5 6 6 6 6 6 6 6 6 6 7 7 7 6 6
9 9 9 9 11 12 13 13 12 12 12 12 13 14 14 14 14 14 13 13 12 12 10 8 7 6 4 2 4 6 6 5 5 5 5 5 5 4 4 4 4 4 4 3 3 3 2 2 2 2 2 2 2 2 1 1 1 1 2 2 2 3 3 4 4 4 5 5 6 6 6 6 6 6 6 6 7 7 7 8 8 7 7 7 6
10 10 10 10 11 11 12 13 12 12 12 12 13 13 14 14 15 14 13 12 11 11 10 8 7 4 4 2 2 4 5 5 5 5 5 4 4 4 3 3 3 3 3 3 3 3 2 2 2 2 2 2 2 1 1 1 1 1 2 2 3 4 4 4 5 5 6 6 6 7 6 6 6 6 6 6 7 7 8 8 8 7 7 7 6
10 10 11 11 11 11 12 12 13 13 12 12 12 12 13 14 14 14 13 12 12 11 10 8 7 5 3 2 2 2 4 4 4 5 4 4 4 4 3 3 2 2 2 2 2 2 2 1 1 2 2 2 2 1 2 1 2 2 2 3 4 4 5 5 6 6 7 7 7 7 7 7 6 6 6 7 7 7 8 7 7 7 7 7 6
10 10 11 11 10 12 12 12 12 13 13 13 13 13 13 14 14 14 13 13 12 11 10 9 7 6 4 2 2 1 3 4 3 4 4 3 3 3 3 3 2 2 2 2 1 1 1 1 1 2 2 2 2 2 2 2 2 3 3 4 4 4 5 6 6 7 7 8 8 7 7 7 7 6 7 7 7 7 7 7 7 6 6 6 6
9 9 10 10 10 11 11 11 12 12 13 13 13 14 14 14 14 14 13 12 12 11 10 9 7 7 5 3 2 1 2 4 3 4 4 3 3 3 3 2 2 2 1 1 1 1 0 1 1 2 3 2 2 2 3 3 3 3 4 4 5 5 6 6 6 7 8 8 8 8 7 7 7 6 7 6 6 6 6 6 6 6 5 5 5
9 10 10 10 9 10 10 11 11 11 12 13 13 14 14 14 13 13 13 12 12 11 9 8 8 7 5 3 3 2 1 3 3 3 4 4 3 3 2 2 2 1 1 0 0 0 1 1 2 2 2 2 2 2 3 3 4 4 4 5 5 5 6 6 6 8 8 8 8 8 7 7 6 6 6 6 6 6 6 5 5 5 4 4 4
10 11 11 10 9 10 11 12 12 12 13 14 14 14 14 13 14 14 13 13 12 10 8 7 7 6 4 3 3 2 1 2 2 3 4 3 3 2 2 2 1 0 1 1 2 2 2 3 3 3 2 2 2 3 3 3 4 4 4 4 5 5 6 6 7 8 8 8 8 7 6 5 5 5 5 5 5 5 5 5 5 4 4 4 4
10 11 11 10 10 11 11 12 13 13 13 15 15 15 15 15 15 14 14 13 12 10 8 8 8 6 4 3 2 1 1 2 2 3 3 3 3 2 2 2 0 2 2 3 3 2 2 4 4 3 3 3 4 3 3 3 3 4 4 4 5 6 6 6 7 7 7 7 7 6 5 5 4 5 5 5 5 5 5 5 6 5 5 5 5
10 10 10 10 11 11 12 12 13 13 14 15 17 16 16 16 15 13 12 11 11 11 11 10 9 7 5 3 1 1 2 3 2 2 2 3 3 2 2 2 2 3 3 2 2 1 3 5 3 1 2 3 3 3 3 3 3 3 4 4 5 6 6 7 7 7 7 7 6 6 5 5 5 5 5 6 6 6 7 7 7 7 7 7 7
10 10 10 10 10 11 12 12 13 14 14 16 18 18 17 16 14 12 11 10 10 11 11 11 9 8 8 5 1 2 2 3 3 2 3 3 3 3 3 2 3 3 4 2 2 1 4 6 5 4 4 4 3 3 3 3 3 3 4 5 5 5 6 6 6 7 6 6 6 6 6 6 6 7 7 7 7 8 8 8 8 8 8 8 8
10 10 10 10 10 11 11 12 13 14 15 17 19 19 18 16 14 12 10 10 10 11 11 10 8 8 9 6 2 3 3 4 5 5 4 3 3 3 3 2 3 4 4 3 2 3 5 7 8 8 8 7 5 4 3 3 3 3 4 5 5 6 6 6 6 6 6 6 6 6 6 7 7 7 8 8 9 9 9 9 9 9 9 9 9
12 11 10 11 11 10 10 11 12 13 14 16 18 19 18 16 14 12 9 8 9 10 9 8 8 9 9 6 4 4 5 6 7 7 6 6 3 2 2 2 3 4 4 4 3 4 6 7 9 10 11 10 8 7 5 5 4 4 5 5 6 6 6 6 6 6 6 6 7 7 7 7 8 8 9 9 10 10 10 11 11 11 11 11 11
12 11 11 11 11 10 9 9 10 11 13 15 16 17 17 16 15 12 9 9 10 8 8 7 9 11 10 6 4 5 6 5 7 7 7 9 7 4 2 2 3 3 3 5 5 5 6 7 9 10 11 11 11 9 7 6 6 5 6 6 6 6 6 6 6 6 7 7 7 7 8 8 8 9 9 10 10 11 11 12 12 12 12 12 12
12 11 10 10 10 11 9 9 9 9 10 13 14 15 17 17 16 13 10 11 10 8 9 9 9 11 9 7 5 5 5 4 6 7 6 8 8 7 5 2 2 2 3 4 6 6 6 7 9 10 10 10 11 11 9 7 6 6 6 6 5 5 5 5 5 6 6 7 7 7 8 8 9 9 10 11 11 12 12 13 13 13 14 14 14
11 11 11 10 10 10 10 9 9 8 9 10 12 14 18 19 16 14 12 11 10 10 11 10 10 10 9 7 5 5 5 5 6 6 5 5 7 8 8 4 3 3 3 4 5 6 7 8 8 9 9 10 10 11 10 8 7 7 6 6 5 5 5 5 5 6 6 7 7 8 9 9 10 11 12 12 13 13 14 14 15 15 15 16 16
11 11 11 10 9 9 9 9 8 9 9 9 10 13 18 20 17 15 14 12 12 12 12 11 10 11 9 7 5 5 5 6 6 6 6 6 6 8 8 6 5 5 5 5 6 5 6 8 8 8 9 9 10 11 11 9 8 7 7 6 6 6 6 6 7 7 8 9 10 10 11 12 12 13 14 14 15 16 16 17 17 17 18 18 18
11 11 11 11 10 9 8 9 9 8 8 9 9 12 16 18 18 17 15 13 12 11 12 11 10 11 10 7 6 5 6 7 7 6 7 6 6 8 8 9 8 8 8 7 6 4 5 7 7 8 8 8 9 10 11 10 9 8 8 7 7 7 8 8 9 10 11 12 12 13 14 14 15 15 16 16 17 18 19 19 19 20 20 20 20
11 11 11 12 11 10 9 9 9 8 7 8 9 10 13 16 18 18 15 13 11 10 11 12 12 13 11 9 7 6 6 9 9 7 7 7 7 7 7 10 10 8 9 7 5 4 6 6 6 7 7 8 8 9 10 11 11 11 10 9 9 9 9 10 11 11 12 13 14 15 16 16 17 17 18 19 19 20 20 21 22 22 23 23 23
13 12 12 12 12 11 10 9 9 9 8 9 9 10 11 15 19 17 14 13 12 10 10 12 14 14 13 11 8 7 8 11 11 9 8 8 7 6 5 8 8 6 6 5 4 5 7 6 5 6 6 7 8 8 10 11 14 15 13 11 11 11 11 12 12 13 14 14 15 16 17 17 18 19 19 20 21 21 22 23 23 24 25 26 26
15 13 12 12 11 11 10 9 10 10 10 10 10 10 11 14 17 17 15 14 13 12 11 13 15 15 14 11 7 7 9 12 12 10 10 8 7 4 3 6 7 5 4 4 4 5 4 3 3 5 5 6 7 8 10 11 15 17 15 13 12 12 12 13 13 14 14 15 16 16 17 18 19 19 20 21 21 22 23 23 24 25 26 26 27
14 14 13 13 12 11 11 11 11 12 12 12 11 10 11 12 15 16 16 16 15 14 14 14 14 14 12 10 7 7 9 11 11 10 9 7 5 3 4 5 6 6 5 5 5 4 2 1 3 5 5 6 7 8 10 11 14 17 15 14 14 14 14 15 15 16 16 16 16 16 17 17 18 19 20 21 21 22 22 22 23 24 24 25 26
16 15 14 13 13 13 12 12 13 13 12 13 12 11 10 11 13 15 17 19 18 16 16 14 11 10 10 9 9 9 9 8 9 9 8 7 5 2 3 5 6 5 5 5 4 4 3 3 5 6 6 7 7 9 10 11 14 16 16 15 15 15 16 16 17 18 18 17 17 17 17 17 18 18 19 19 19 20 20 21 22 22 23 24 25
17 16 15 14 14 14 13 12 13 13 13 14 14 12 11 11 12 13 15 18 19 18 18 14 10 10 11 12 12 11 9 8 8 8 7 7 6 4 4 5 6 6 6 6 4 4 4 5 7 8 7 7 8 10 11 12 14 16 15 16 16 16 17 18 19 19 18 18 18 18 18 18 18 18 18 18 19 20 20 22 23 24 25 25 25
18 16 14 14 14 15 14 13 13 14 13 14 15 14 13 12 12 13 13 15 18 20 20 16 13 14 15 15 14 12 10 9 9 8 7 7 7 8 6 6 8 8 8 7 6 5 5 5 8 8 8 8 8 10 11 13 15 16 15 16 17 17 18 19 19 18 17 17 17 17 17 17 17 17 18 19 20 22 23 24 24 25 26 26 26
18 16 15 15 15 15 15 14 14 15 14 14 15 15 14 13 13 14 15 14 16 20 20 18 16 16 17 16 15 13 11 9 10 9 9 9 8 7 6 6 7 9 9 8 7 7 7 6 7 7 7 8 8 10 12 14 16 17 16 17 18 19 19 18 17 16 15 15 14 14 15 16 17 18 19 21 22 23 24 25 25 25 24 24 25
19 18 17 16 16 15 16 15 15 15 15 15 15 15 15 15 14 15 15 15 15 17 18 19 19 19 18 17 16 13 11 10 11 10 10 10 9 8 8 8 8 8 9 8 6 7 8 8 8 7 6 7 9 10 13 15 16 17 16 16 16 17 17 16 14 13 12 12 12 14 16 18 19 20 20 22 22 23 24 25 24 24 24 24 24
21 19 19 19 18 17 17 17 17 16 16 16 16 15 15 15 15 15 15 16 15 15 15 16 20 22 20 19 16 14 13 13 14 12 11 11 11 10 11 10 9 8 8 8 6 5 7 7 8 8 8 8 10 11 12 13 14 13 13 12 13 14 14 13 12 11 11 12 14 16 19 21 21 21 22 23 24 24 24 24 23 22 22 22 22
23 22 21 20 21 20 19 19 19 18 17 18 17 17 16 16 16 16 16 17 17 16 14 13 17 21 21 20 19 17 16 16 16 15 13 12 12 12 12 11 9 9 8 8 7 4 4 5 5 6 8 8 9 9 9 9 10 10 10 10 11 11 11 10 10 10 11 13 16 18 20 22 23 23 24 25 24 23 22 21 19 18 17 17 17
25 23 22 22 22 21 21 21 21 20 19 19 19 19 19 18 18 18 18 18 18 18 16 14 15 18 20 20 20 20 19 18 17 17 16 15 14 13 12 11 9 9 9 9 9 6 4 6 5 4 6 8 7 7 8 8 8 8 9 9 9 9 9 9 10 11 12 14 16 19 22 24 25 25 24 21 19 18 16 15 15 16 16 18 18
27 25 24 23 23 22 22 23 23 22 21 21 21 21 21 20 20 19 19 19 18 18 17 16 15 17 19 20 21 21 20 19 19 19 18 17 15 13 12 11 10 9 9 9 10 9 5 5 6 5 6 7 7 7 9 10 9 8 7 6 6 7 9 10 11 13 14 16 18 22 25 26 25 22 18 15 14 14 14 15 17 19 20 21 22
30 28 26 24 24 24 23 24 24 24 24 23 22 22 22 22 22 21 21 21 20 19 19 19 18 17 18 19 21 21 21 19 18 18 17 16 14 12 11 12 12 11 10 10 12 12 9 8 8 8 8 9 9 9 11 12 11 10 8 6 6 8 9 11 13 16 17 18 21 24 25 25 21 16 13 12 13 15 17 20 22 23 24 24 25
33 31 29 27 26 25 25 25 25 26 26 26 25 24 24 23 23 23 22 22 22 21 20 20 19 19 18 19 19 19 19 19 17 15 14 14 14 13 12 13 14 12 11 12 13 15 15 14 12 11 11 10 11 11 12 12 12 13 12 10 10 11 11 13 16 18 19 21 23 25 24 21 16 12 11 12 14 17 20 22 24 25 26 26 27
36 34 32 30 28 27 27 27 26 27 29 29 27 26 25 25 24 24 24 24 23 23 22 21 21 20 20 20 19 19 18 18 17 15 14 14 15 15 15 15 15 14 13 13 15 15 17 18 16 15 14 12 12 12 12 13 13 14 14 13 12 14 15 17 19 20 20 21 23 22 21 17 12 10 12 14 16 18 21 23 24 25 25 26 27
38 36 35 33 31 30 29 29 28 28 29 31 30 29 27 26 25 25 25 25 25 24 23 23 22 22 22 22 21 20 19 19 17 16 16 16 15 16 16 16 16 15 15 15 17 17 19 20 19 16 14 13 13 12 12 14 15 16 15 14 14 16 18 20 21 20 19 20 20 19 17 14 10 11 14 16 19 21 23 23 24 24 24 26 28
40 38 37 35 33 32 31 30 29 28 29 31 32 31 30 28 27 26 26 26 25 25 24 24 23 23 23 23 22 21 21 20 19 18 17 17 17 16 17 16 16 16 16 17 18 19 19 20 19 17 14 13 14 13 12 15 17 18 18 16 16 18 21 21 20 18 17 18 18 17 16 14 12 13 17 19 22 24 23 23 22 23 25 27 29
42 40 39 37 36 34 33 32 31 29 29 30 32 33 32 31 29 28 27 27 26 26 25 24 24 24 24 23 23 22 22 21 20 19 18 18 17 17 17 16 15 16 17 17 17 18 19 18 18 17 15 15 15 14 14 16 17 17 19 19 19 20 21 20 19 17 16 17 17 15 16 14 13 15 19 22 24 24 22 21 22 25 27 29 31
44 42 41 39 37 36 35 35 33 31 31 31 32 33 34 33 32 31 29 28 28 27 26 25 24 24 24 24 23 23 22 22 20 19 18 17 17 17 17 16 16 16 17 17 16 17 17 17 17 16 17 17 16 16 16 17 18 17 17 19 21 21 19 17 17 18 17 17 17 16 15 13 13 17 21 23 23 22 20 21 23 26 29 31 32
46 44 42 41 39 38 37 37 36 34 34 33 33 34 34 34 33 32 31 30 29 29 27 26 25 25 24 24 24 24 23 22 21 20 19 18 18 18 17 17 17 17 17 17 17 17 17 17 17 17 18 19 17 17 17 18 19 19 18 19 21 21 18 16 16 17 17 17 18 17 16 14 16 19 22 23 22 19 19 21 24 26 28 30 31
46 45 44 42 41 40 39 39 38 38 37 35 34 34 35 34 33 32 31 31 31 30 29 28 27 25 24 24 23 23 23 22 21 21 20 20 20 20 18 17 16 16 16 16 16 16 17 18 18 18 19 20 18 18 19 18 18 19 19 19 20 19 17 17 16 17 17 18 18 18 16 16 18 21 22 23 21 19 20 22 24 26 28 29 31
47 46 44 43 42 41 40 40 40 40 39 37 35 35 35 35 34 33 32 31 31 31 30 30 29 27 26 25 24 23 23 23 22 21 21 20 20 19 18 16 15 14 15 15 16 16 17 18 18 18 19 20 18 18 19 18 17 17 18 18 18 17 17 18 19 19 19 19 19 18 17 17 19 21 22 21 20 19 21 23 25 27 28 29 31
48 46 45 44 43 42 41 41 41 41 40 39 37 35 35 35 34 34 33 32 32 31 31 31 30 29 28 27 26 25 24 24 23 23 23 22 22 21 19 17 16 16 17 17 17 17 18 19 19 19 19 20 20 19 18 17 16 16 16 16 15 16 16 17 20 21 20 19 19 18 17 17 19 20 21 20 19 20 21 23 25 27 28 30 31
48 48 46 45 44 43 42 42 42 42 41 40 38 37 36 35 34 34 34 33 33 32 32 31 31 30 30 29 29 28 26 25 25 25 25 24 23 23 22 20 19 20 20 20 20 19 20 21 21 20 19 19 20 19 17 16 16 16 15 14 14 14 16 17 19 20 19 18 19 19 17 18 18 19 19 19 18 19 21 23 25 27 29 30 31
49 49 48 46 45 45 44 43 43 42 41 40 39 38 37 36 35 35 35 35 34 33 33 32 31 31 30 30 29 29 27 26 26 25 25 24 23 23 23 23 22 22 22 22 22 22 23 23 23 22 20 20 21 20 15 13 14 14 14 14 14 14 15 17 18 18 18 18 19 19 18 18 18 18 18 17 17 19 21 23 25 28 29 30 31
50 50 49 48 47 46 45 45 44 44 42 39 38 38 37 37 36 36 36 36 36 35 34 33 33 32 31 30 29 29 27 27 26 25 25 24 24 24 24 24 23 23 24 24 24 24 25 25 24 23 22 22 22 20 15 13 13 14 14 15 15 15 16 16 16 16 17 17 18 18 18 18 17 16 16 16 16 18 21 23 25 27 29 30 31
50 50 49 49 48 47 46 46 46 45 43 40 38 37 36 36 36 37 38 38 38 38 36 35 34 32 31 31 31 30 29 27 26 26 25 25 26 26 26 26 26 26 27 27 25 25 26 26 26 25 24 24 23 20 17 15 14 13 14 16 15 15 15 16 15 15 15 16 17 16 17 18 16 14 13 15 15 17 20 23 25 27 28 29 30
50 50 50 50 49 48 47 47 47 46 44 41 39 38 36 34 35 36 37 38 38 38 37 35 34 33 32 32 31 31 30 28 27 26 26 27 27 28 29 29 29 31 31 30 28 27 26 26 26 25 25 25 24 21 18 17 15 14 15 16 15 14 15 16 15 14 15 16 16 16 17 17 16 13 11 12 14 16 20 23 24 25 26 28 29
50 50 50 49 49 49 48 47 47 46 44 42 40 39 37 35 35 34 34 35 36 37 36 35 34 34 33 32 32 32 32 30 28 28 28 28 28 28 29 30 31 32 32 30 30 29 28 26 25 25 25 26 24 22 19 17 15 15 16 16 14 13 14 15 14 16 17 16 16 17 17 16 15 13 11 11 12 14 18 21 23 25 26 27 28
50 49 48 49 49 49 49 48 47 46 45 43 41 40 38 37 36 35 34 34 34 34 34 34 34 34 33 33 32 33 33 31 29 29 29 29 28 28 28 28 30 30 28 26 26 26 25 25 24 24 25 24 23 22 20 17 15 15 16 16 14 14 16 16 16 17 17 16 16 18 17 15 14 13 13 13 12 13 17 20 22 25 26 27 28
Wind_Direction
136 138 145 147 146 147 146 145 145 145 144 143 144 146 149 153 156 158 157 152 141 135 139 139 134 129 107 89 98 106 103 95 91 90 93 105 129 142 142 138 135 131 132 130 127 128 129 135 146 153 156 158 160 158 157 162 173 173 159 158 20 10 354 345 332 334 334 332 334 333 328 325 325 325 327 327 324 323 321 323 323 321 323 327 330
147 145 149 153 154 157 156 152 153 153 150 148 149 151 153 156 158 156 150 142 137 137 139 137 132 123 111 89 95 105 102 92 89 90 89 89 97 109 121 127 134 138 140 139 136 135 136 142 145 150 154 156 159 158 166 179 186 191 194 230 265 294 302 309 309 316 322 322 324 328 326 324 325 326 326 324 323 324 323 324 322 324 329 333 338
161 162 159 162 162 161 160 159 159 161 160 159 158 157 159 158 157 153 146 140 137 137 139 136 127 116 113 95 89 98 96 92 90 85 82 80 84 90 98 109 124 136 144 144 144 147 149 156 158 158 160 162 167 172 183 192 200 219 244 269 277 281 292 301 307 312 313 313 313 315 316 317 321 326 330 328 329 332 332 333 333 335 341 344 348
164 169 169 169 167 163 162 162 161 163 165 166 164 162 164 161 157 156 149 144 141 142 144 143 136 122 118 107 84 86 82 85 85 75 70 72 78 79 82 94 107 121 133 136 138 146 149 152 160 165 170 172 175 178 192 220 249 272 283 293 294 291 296 298 301 304 302 302 302 302 306 311 315 322 328 328 330 334 336 338 339 343 347 349 350
166 169 171 168 166 164 163 162 158 159 163 167 167 163 165 164 161 162 156 149 148 148 149 150 151 143 127 120 87 68 64 75 74 60 61 67 70 72 76 81 89 102 117 128 134 137 138 142 151 162 170 170 164 164 191 232 260 274 287 292 297 298 301 300 297 297 297 297 298 298 304 309 310 316 322 323 326 331 336 338 341 345 347 347 348
168 168 169 165 163 163 161 161 156 156 161 165 165 161 160 162 161 164 164 156 151 150 151 155 161 163 154 140 122 54 44 61 64 51 56 63 62 64 71 76 79 91 104 116 127 131 139 153 167 176 178 184 189 199 216 232 255 269 281 288 294 299 301 300 295 293 294 296 296 295 299 305 305 309 316 319 323 328 333 337 340 342 342 342 342
167 167 167 164 163 165 163 160 156 157 161 161 159 158 156 157 158 161 163 159 155 153 154 160 165 166 171 161 149 86 30 41 52 54 53 48 45 49 59 73 77 77 93 97 96 116 151 188 211 225 225 224 232 243 250 251 254 264 274 279 285 290 290 290 290 290 294 295 295 294 295 299 301 305 311 316 321 326 331 335 337 338 339 339 339
166 165 163 162 161 166 166 161 159 159 159 157 155 156 155 156 158 157 159 161 161 158 156 160 159 157 169 182 177 189 22 28 38 49 41 31 35 49 62 69 68 76 101 93 81 91 84 254 250 245 244 248 254 262 267 266 264 267 274 278 279 282 284 286 291 297 301 303 302 300 297 296 298 302 308 314 320 327 331 334 336 337 338 337 337
163 162 157 157 158 162 166 162 159 158 157 156 155 155 153 154 156 155 156 160 160 159 158 156 152 153 165 180 182 203 340 12 30 39 30 24 33 56 73 65 67 97 122 101 213 358 6 326 292 269 258 259 268 273 279 282 280 280 283 286 285 285 288 292 301 309 313 315 313 307 300 294 297 301 307 315 323 329 331 333 335 336 336 333 334
159 159 154 154 158 160 163 164 162 159 158 158 157 157 155 154 154 156 158 160 160 160 158 150 150 151 147 160 180 205 295 358 17 19 21 24 37 63 68 66 100 142 326 297 301 313 327 325 305 283 271 273 284 291 292 294 291 291 292 294 294 294 299 304 314 322 324 326 323 316 307 300 302 305 312 319 325 327 327 327 326 327 326 324 324
153 154 155 155 160 164 164 166 167 165 165 163 162 161 160 157 152 152 156 160 161 159 154 150 155 158 139 135 178 213 264 309 345 359 14 25 37 65 52 48 329 310 323 307 304 319 343 340 314 271 276 289 288 290 291 300 299 295 294 298 305 307 311 317 326 332 333 333 333 330 325 320 318 316 317 320 321 319 319 318 317 316 315 313 314
152 152 156 155 159 165 164 166 170 172 171 167 163 160 157 155 149 146 150 156 157 152 149 153 163 174 168 152 181 211 267 287 298 342 360 4 11 26 22 11 348 341 347 317 266 254 18 12 6 281 309 318 299 287 286 300 301 297 299 309 319 320 321 327 334 340 341 341 342 342 338 333 328 323 320 318 316 316 315 314 313 311 311 309 308
155 157 155 151 153 159 162 164 168 171 172 168 164 160 157 155 153 154 161 169 168 157 154 161 174 191 187 178 208 201 240 264 249 276 321 337 348 2 1 360 8 15 25 32 178 134 30 31 37 30 7 1 350 326 309 307 310 311 320 329 334 336 335 337 342 345 346 345 343 343 339 333 328 324 321 318 317 316 315 315 314 312 311 309 307
159 162 152 145 147 151 157 161 165 169 170 170 169 168 166 161 157 159 168 180 176 165 164 173 190 200 190 188 211 207 212 224 228 246 266 300 340 11 15 18 26 29 32 49 94 59 43 45 43 37 29 24 19 12 4 357 2 2 356 354 353 354 354 353 354 354 352 349 345 342 339 334 330 326 323 322 320 319 318 317 316 314 312 310 308
163 163 154 147 147 150 154 156 163 169 170 171 173 177 178 167 159 161 168 185 181 173 177 186 198 197 190 201 217 218 223 217 217 229 240 255 287 357 23 26 35 44 47 51 55 47 49 50 45 41 35 32 32 30 26 25 27 28 24 19 16 16 14 12 7 2 358 353 349 345 342 337 334 330 327 324 322 320 319 317 315 313 311 309 306
162 160 158 153 152 153 152 150 154 163 168 172 175 182 184 173 166 168 175 191 191 190 196 196 204 204 200 209 220 231 245 232 215 220 233 242 254 281 317 14 29 42 58 55 48 45 49 48 45 44 40 37 34 32 28 26 28 33 36 36 32 28 21 16 9 3 357 352 349 346 342 339 335 331 327 324 321 319 317 315 313 311 308 306 304
164 163 165 159 154 151 149 150 150 157 167 171 172 177 181 176 172 175 179 189 195 200 201 196 205 212 210 212 217 231 245 232 212 216 233 246 251 257 263 293 349 353 23 41 43 43 47 49 46 43 41 37 33 33 31 25 25 30 34 35 33 26 16 8 2 356 351 347 345 341 337 334 331 328 325 322 320 317 315 313 311 309 307 305 303
172 169 171 163 157 152 150 153 153 160 168 170 171 173 176 176 175 178 182 189 200 208 206 201 203 208 211 220 230 237 233 215 211 212 227 257 258 246 250 266 281 306 334 359 21 35 40 38 37 34 33 32 30 32 31 26 21 20 20 19 17 14 7 1 356 352 349 346 344 341 337 335 332 329 326 323 321 319 317 314 312 310 308 306 304
183 177 177 171 166 162 156 155 156 162 168 171 175 177 180 181 180 183 188 194 202 209 213 212 207 202 205 214 220 230 227 215 216 212 216 242 250 235 242 258 270 285 299 327 347 7 24 24 22 21 20 20 22 27 30 29 21 14 11 9 7 6 4 1 357 354 351 348 346 344 341 338 335 332 329 326 324 321 320 318 316 313 311 309 307
192 186 183 180 177 173 167 162 161 160 161 168 178 184 187 189 189 190 196 200 200 207 215 215 208 199 198 202 204 216 228 221 219 217 211 219 229 229 239 251 261 273 279 302 320 328 6 16 14 12 12 14 18 24 29 31 26 17 10 6 3 3 2 359 356 352 349 346 344 342 339 336 334 330 328 325 323 321 319 318 316 315 313 311 309
195 192 186 185 181 179 178 174 171 165 160 166 178 188 193 195 195 196 202 201 194 200 211 213 208 199 199 210 216 224 230 217 215 217 210 211 218 228 250 255 253 260 266 279 297 312 342 360 4 2 6 11 16 23 26 25 23 17 10 1 353 350 350 350 349 347 344 342 340 337 334 332 329 326 324 322 320 318 316 315 314 313 312 311 310
193 192 186 184 181 181 185 184 183 178 169 170 180 190 196 198 197 199 205 202 195 200 202 201 201 199 206 219 228 245 235 211 207 212 209 212 217 223 260 262 249 252 259 266 296 319 326 335 350 357 3 9 12 15 15 13 11 8 6 1 353 347 345 345 346 345 343 340 338 334 332 329 326 324 322 320 318 316 315 314 313 312 311 310 309
194 195 188 184 184 183 186 190 193 191 180 176 182 189 195 202 203 202 205 204 201 202 190 184 192 198 210 222 231 248 229 205 203 207 205 210 217 223 258 264 257 258 261 272 297 318 321 315 335 350 359 4 5 5 5 5 2 0 1 1 358 355 351 350 350 348 344 340 336 332 329 327 325 322 320 318 317 316 315 314 313 313 312 311 310
197 199 195 190 189 188 190 193 196 198 191 182 183 189 193 202 207 206 208 209 207 206 194 185 192 201 211 219 217 216 205 194 198 203 204 212 220 236 241 238 241 240 244 269 287 295 287 269 323 338 348 354 355 351 351 353 352 353 355 356 356 354 352 351 349 346 342 337 334 332 330 328 325 322 320 318 317 316 317 318 319 320 319 317 315
199 200 198 193 194 196 197 197 196 198 197 189 186 189 192 199 205 205 209 214 214 212 205 195 193 201 203 195 182 180 176 174 185 192 198 209 215 241 244 228 226 226 239 258 273 281 272 280 305 309 320 338 341 337 337 338 340 344 347 346 347 346 344 343 342 340 338 335 335 335 335 334 331 329 327 325 324 324 324 325 325 325 325 324 322
200 198 200 197 198 200 202 204 202 201 200 195 190 189 192 199 205 204 207 215 216 215 213 205 190 184 181 173 170 173 172 172 177 178 186 203 223 252 265 250 238 236 247 252 253 267 269 276 282 280 295 319 324 324 327 326 326 333 338 335 334 334 334 335 335 334 333 334 336 338 338 339 339 337 336 335 333 332 330 328 327 327 326 325 323
200 200 203 204 203 202 203 205 207 209 206 199 194 193 195 200 204 204 203 209 213 214 216 210 190 178 175 173 175 178 182 189 192 191 200 220 243 253 255 255 247 243 250 254 249 250 257 268 272 270 277 294 303 307 312 312 313 320 326 324 323 325 327 328 329 328 330 334 337 341 344 344 343 341 339 337 335 334 332 330 328 325 323 321 320
206 206 209 210 207 205 206 205 206 212 213 208 202 199 201 205 206 204 201 203 208 213 219 216 199 189 186 183 181 182 187 201 211 212 221 236 248 247 247 257 257 254 258 262 254 246 252 264 273 279 279 280 288 293 296 300 305 309 313 313 316 319 321 323 324 327 331 338 343 348 349 347 345 342 339 337 334 332 329 326 322 320 317 316 315
215 213 214 214 212 209 210 210 207 210 214 215 213 206 204 208 209 207 203 202 204 208 216 219 211 205 202 193 187 187 196 214 224 222 227 240 248 251 259 266 265 261 262 266 260 249 252 258 267 278 283 284 291 294 297 300 302 303 305 309 313 315 318 322 327 332 336 341 347 350 350 348 345 341 337 333 329 325 321 318 317 315 313 311 310
220 219 218 218 218 216 215 215 213 211 212 215 218 215 208 205 207 210 209 207 206 203 206 213 212 211 212 204 195 196 205 219 228 227 228 239 250 259 266 266 262 259 259 265 267 248 243 251 263 275 280 286 295 299 301 302 302 301 305 311 315 317 324 332 337 340 342 346 350 350 349 347 342 337 332 327 323 320 317 315 315 314 313 313 312
222 221 220 219 220 220 218 217 215 214 214 215 217 219 215 208 205 207 212 212 211 206 202 204 208 211 212 207 201 202 210 219 227 231 232 238 249 259 262 261 259 260 262 268 274 266 253 261 267 278 287 293 299 302 306 308 308 311 317 323 326 328 335 343 347 346 347 349 349 348 346 342 337 331 327 324 322 320 318 318 319 318 316 313 311
223 221 221 220 220 221 220 217 215 215 217 217 218 219 219 216 210 207 211 216 215 210 205 202 205 210 209 204 201 204 210 218 224 231 236 239 245 251 252 255 258 262 266 266 267 267 269 279 283 290 298 303 308 312 318 325 328 331 333 332 331 337 345 349 349 348 347 346 345 344 342 337 332 329 328 327 325 324 325 324 321 315 311 310 311
227 225 225 224 223 223 223 220 217 217 218 220 221 221 221 220 217 212 213 217 218 214 211 209 208 210 207 203 202 203 209 217 221 226 234 238 241 242 244 251 253 258 265 268 272 274 268 279 294 309 317 319 329 335 333 338 342 343 341 333 329 341 349 346 345 346 345 344 345 343 337 332 330 330 332 332 332 333 330 323 318 317 317 319 319
229 229 229 229 228 226 225 223 221 219 219 220 222 223 224 222 220 218 216 218 220 218 216 215 213 214 212 208 206 205 211 218 220 223 232 238 243 244 246 253 254 256 264 273 282 288 293 302 310 321 329 329 335 341 337 337 343 345 347 344 339 345 347 340 340 345 346 346 344 337 331 330 332 336 339 340 342 339 331 328 327 325 324 323 321
232 232 232 232 232 230 228 226 224 221 220 220 221 224 225 224 222 221 219 220 222 221 219 217 216 219 222 220 217 214 216 222 224 227 235 242 250 255 256 258 260 261 265 271 279 288 297 306 315 324 328 327 331 337 335 334 339 343 345 346 345 345 343 339 342 347 347 343 336 331 330 332 337 344 347 346 344 338 334 334 330 325 325 326 325
235 235 235 234 234 233 232 229 226 225 222 220 220 222 225 226 225 224 223 223 223 224 222 220 218 221 225 228 228 227 228 231 234 238 242 245 250 256 260 261 264 267 267 269 274 283 291 299 309 319 321 321 325 331 332 332 336 341 342 343 343 342 342 343 345 347 344 337 332 332 333 335 341 350 350 347 343 340 338 335 329 327 329 329 328
236 237 237 236 234 234 234 232 230 228 225 222 220 221 224 226 226 226 226 226 226 226 226 225 224 224 227 230 232 235 237 239 241 244 246 248 249 255 259 261 264 268 268 268 270 275 281 289 300 308 312 315 320 328 332 331 334 339 339 340 340 339 341 343 343 343 341 335 335 337 336 338 350 356 352 348 346 345 344 338 333 332 331 329 330
236 237 237 237 236 236 235 234 233 231 228 225 223 222 223 225 227 227 228 229 229 229 229 229 230 230 232 234 235 238 242 244 246 246 247 251 254 255 257 259 262 265 266 267 269 271 275 282 290 299 308 315 318 324 331 329 330 336 336 337 338 337 338 339 339 341 340 336 340 343 339 344 359 357 354 352 350 349 346 340 336 333 331 333 335
236 237 237 237 238 238 237 234 234 233 232 230 227 226 225 225 226 227 228 230 231 231 231 230 231 233 234 236 238 240 243 246 249 250 251 253 255 256 256 257 259 260 262 265 266 269 272 276 284 294 306 312 313 319 327 326 327 331 331 331 335 336 336 336 338 343 342 339 347 349 342 349 1 358 356 355 352 349 345 340 338 334 335 339 340
236 237 238 239 239 239 238 236 234 233 233 233 231 230 228 227 227 228 229 230 231 233 233 232 232 233 234 236 238 241 244 248 252 254 254 254 255 257 257 257 258 259 262 265 267 269 272 275 282 292 301 304 308 316 323 324 325 327 326 325 329 333 335 336 340 344 341 343 354 354 345 353 3 360 358 356 352 349 344 340 339 338 340 342 343
236 237 239 240 240 239 238 237 235 233 233 233 233 232 232 230 229 229 230 231 232 233 235 236 236 236 236 236 238 241 244 248 252 254 255 255 256 258 259 260 261 262 264 266 269 272 274 277 283 290 295 298 305 314 319 323 323 323 323 323 323 325 327 332 341 346 341 342 354 355 349 357 4 360 358 356 351 348 343 340 341 342 343 344 346
236 237 238 239 239 239 238 237 235 234 234 233 232 232 233 233 233 232 231 231 231 232 234 237 238 238 238 238 238 240 242 245 248 250 251 252 254 257 258 257 257 259 264 268 271 273 277 279 283 288 291 294 304 313 317 321 322 321 321 320 317 318 321 326 339 348 341 340 350 355 354 359 2 359 357 354 351 347 345 344 345 347 346 347 350
235 236 236 237 237 238 237 236 236 235 234 233 232 232 233 234 235 235 235 234 233 232 233 235 238 240 241 241 241 241 242 243 246 247 248 250 253 255 254 251 252 258 265 270 273 276 278 280 284 287 288 294 305 313 315 320 321 318 315 313 311 314 320 327 337 344 340 337 345 353 357 359 359 358 355 352 349 347 348 349 349 349 349 352 355
234 235 235 235 236 237 236 236 236 236 236 235 233 233 232 233 235 236 238 238 237 237 236 236 238 240 243 245 246 246 246 247 249 250 250 252 255 254 250 248 252 259 265 270 274 277 279 281 284 286 287 294 304 310 315 318 315 308 306 305 306 312 321 329 335 337 336 335 341 350 356 357 357 357 354 351 348 348 351 353 352 350 352 356 358
233 234 234 235 235 236 236 236 236 236 237 237 236 235 234 233 234 236 238 240 240 241 241 240 240 240 242 245 247 249 250 251 252 253 253 255 255 253 251 250 252 255 260 264 268 271 275 278 280 283 290 296 301 308 313 311 303 299 301 303 306 314 323 330 332 331 330 333 340 347 351 352 355 356 353 349 346 347 353 355 353 352 354 358 360
231 232 233 234 234 235 235 236 236 237 238 238 238 238 237 235 235 236 238 240 242 243 243 244 244 244 244 246 248 249 251 251 252 254 254 255 256 255 254 253 253 255 257 259 263 265 269 273 276 284 293 297 300 305 307 298 292 293 297 302 308 315 321 326 328 326 325 330 338 343 345 347 352 354 351 347 345 348 355 356 353 354 357 359 360
230 231 233 234 234 235 235 235 236 237 238 239 239 239 239 238 237 237 238 240 242 244 245 246 247 248 248 249 250 251 251 252 252 253 255 256 258 258 257 254 254 257 258 259 262 264 268 272 276 284 291 294 299 301 295 285 285 288 293 299 306 313 317 321 323 318 317 326 335 338 338 340 347 352 348 343 344 350 355 356 354 356 358 358 359
229 231 233 234 234 235 235 235 235 237 239 240 240 240 240 240 240 240 240 241 242 244 246 247 248 249 249 250 251 252 252 252 252 253 256 259 260 262 261 257 256 257 258 260 261 263 266 269 273 279 285 289 294 293 286 282 283 285 289 294 301 310 312 312 312 308 308 319 328 331 331 331 337 348 347 340 342 350 355 356 355 357 358 358 359
228 230 231 233 234 235 235 234 235 237 239 240 240 240 240 240 241 241 241 242 243 245 247 248 249 249 249 250 251 252 252 251 251 253 256 259 260 261 261 259 258 258 258 259 261 263 264 266 269 272 276 281 286 287 286 286 285 283 284 290 298 303 300 299 300 298 301 310 319 324 327 325 328 338 346 343 344 350 355 356 355 356 359 360 0
229 230 231 232 233 234 235 235 235 237 239 240 241 240 240 240 241 241 242 243 244 246 247 247 248 248 249 249 250 252 252 251 251 253 256 257 258 257 257 257 257 257 258 259 261 264 265 267 268 269 272 277 282 286 288 286 279 276 278 285 293 291 286 288 289 289 294 302 311 319 323 322 323 331 344 352 352 351 354 356 356 357 360 1 2
230 230 231 232 232 233 235 236 237 238 240 242 242 242 242 241 241 241 242 243 243 245 246 246 247 248 247 247 248 250 252 252 252 254 255 256 255 254 254 255 255 256 258 260 262 265 267 268 270 271 275 280 283 288 288 280 268 268 273 280 282 278 277 278 277 280 287 296 307 317 319 316 319 330 343 354 358 355 356 357 357 358 360 2 3